星链-30978 (STARLINK-30978 )

导读

STARLINK-30978是美国太空探索技术公司SpaceX星链互联网卫星星座的一员,于2023年12月3日发射入轨,隶属于星链项目低轨卫星组网扩容任务。星链项目旨在构建全球覆盖的低轨卫星互联网,该卫星用于为全球提供高速宽带网络服务,填补地面通信网络覆盖盲区。

基本信息
目录编号:
58490
目录名称:
STARLINK-30978
国际标识:
2023-186T
轨道中心:
EARTH
卫星名称:
星链-30978
卫星全名:
星链-30978 (STARLINK-30978 )
卫星状态:
在轨 (已飞行1006 天)
发射日期:
2023-12-03 UTC
国别 :
美国 (US)
星等 :
--
轨道信息
数据来源 国际轨道数据
星历时间: 2026-09-04T07:25:19+0800
14小时前
查看轨道信息
半长轴: 6861.199km
偏心率: 0.0001527
轨道倾角: 43.002°
近地点辐角 273.202°
升交点赤经 136.705°
平近点角 86.866°
近地点: 482.014km
远地点: 484.11km
周期: 94.267分钟
每日圈数: 15.275758
详细信息
固有亮度:
5
最大亮度:
0.3
卫星平台:
Starlink v2.0 mini
覆盖范围:
全球
运营商:
太空探索技术公司
运营商所在国:
美国
制造商(研发单位):
太空探索技术公司
制造商所在国:
美国
使用方式:
暂无
卫星简介
星链(Starlink)计划是由太空探索技术公司(SpaceX)提出的一个巨型低轨卫星互联网星座项目,计划在2019年至2024年间在太空搭建由约1.2万颗卫星组成的“星链”网络,其中1584颗将部署在地球上空550千米处的近地轨道,并从2020年开始工作。该卫星仍在工作。
2D轨道图
3D轨道图
轨道高度分析图
轨道倾角分析图
轨道综合分析图
查看轨道综合分析图
交会数据列表
事件ID 空间交会对象 最接近时刻(TCA) 交会距离 交会风险概率(CRP) 交会风险指数(CRI) 操作
CDM_260827-180405-849006-204821
2026-08-27T
18:04:32+0000
2.794 km
极远距离
1.188677E-6 低风险 0.37
CDM_260906-060505-849006-764321
2026-09-06T
06:05:02+0000
2.496 km
极远距离
1.079514E-6 低风险 0.36